This is the latest recevied weather packets stored in our database for station/object KC3DGM. If no packets are shown the sender has not sent any weather packets the latest 10 day(s).
| Time | Temp. | Humidity | Pressure | Rain* | Wind** | Luminosity | Snow |
|---|---|---|---|---|---|---|---|
| 1778111834 | 8.33° C | 66% | 984.7 hPa | 0 mm | - | 4 W/m² | - |
| 1778111529 | 8.89° C | 65% | 984.8 hPa | 0 mm | - | 6 W/m² | - |
| 1778111226 | 8.89° C | 66% | 984.9 hPa | 0 mm | - | 6 W/m² | - |
| 1778110924 | 8.89° C | 65% | 984.9 hPa | 0 mm | - | 8 W/m² | - |
| 1778110621 | 8.89° C | 65% | 984.8 hPa | 0 mm | - | 8 W/m² | - |
| 1778110317 | 8.89° C | 64% | 984.7 hPa | 0 mm | - | 8 W/m² | - |
| 1778110014 | 8.89° C | 64% | 984.6 hPa | 0 mm | - | 10 W/m² | - |
| 1778109709 | 8.89° C | 64% | 984.5 hPa | 0 mm | - | 12 W/m² | - |
| 1778109406 | 8.89° C | 61% | 984.3 hPa | 0 mm | - | 12 W/m² | - |
| 1778109105 | 8.89° C | 62% | 984.3 hPa | 0 mm | - | 11 W/m² | - |
| 1778108801 | 8.89° C | 60% | 984.4 hPa | 0 mm | - | 15 W/m² | - |
| 1778108498 | 8.89° C | 60% | 984.2 hPa | 0 mm | - | 18 W/m² | - |
| 1778108195 | 9.44° C | 60% | 984.5 hPa | 0 mm | - | 20 W/m² | - |
| 1778107892 | 9.44° C | 60% | 984.3 hPa | 0 mm | - | 27 W/m² | - |
| 1778107588 | 9.44° C | 58% | 984 hPa | 0 mm | - | 32 W/m² | - |
| 1778107285 | 9.44° C | 58% | 984.2 hPa | 0 mm | - | 29 W/m² | - |
| 1778106981 | 9.44° C | 59% | 984.2 hPa | 0 mm | - | 26 W/m² | - |
| 1778106677 | 9.44° C | 58% | 984 hPa | 0 mm | - | 25 W/m² | - |
| 1778106374 | 10° C | 58% | 983.9 hPa | 0 mm | - | 31 W/m² | - |
| 1778106070 | 10° C | 56% | 983.6 hPa | 0 mm | - | 24 W/m² | - |
| 1778105768 | 10° C | 56% | 983.7 hPa | 0 mm | - | 29 W/m² | - |
| 1778105466 | 10° C | 54% | 983.3 hPa | 0 mm | - | 31 W/m² | - |
| 1778105162 | 10° C | 58% | 983.5 hPa | 0 mm | - | 27 W/m² | - |
| 1778104857 | 10.56° C | 57% | 983.5 hPa | 0 mm | - | 30 W/m² | - |
| 1778104554 | 10.56° C | 57% | 983.7 hPa | 0 mm | - | 45 W/m² | - |
* Rain latest hour (hover to see other rain measurements)
** Current wind speed in m/s (hover to see current wind gust speed)